Volver al catálogo

STARLINK-31160

ActivoComunicacionesVLEO
NORAD 58749·PAYLOAD·🇺🇸 United States

Lanzado Jan 7, 2024 desde Cape Canaveral Space Force Station

Loading…

Próximos Pases (próximas 24 horas)

TLE

ActualizadoSource: CelesTrak SupGP

Época: Sep 14, 2026, 21:25 UTC

1 58749C 24005X   26257.89284722  .00033122  00000+0  11999-2 0  2576
2 58749  42.9998 231.4817 0001384 257.2160 195.7663 15.27555980    16

Sigue STARLINK-31160 en tiempo real con AllMySat

Download on the App Store